RH
33 32 31 32 30 30 27 26 24 21 13 7 6 6 5 3 3 3 3 4 4 5 6 6 6 5 4 4 4 3 4 5 5 6 8 10 10 10 10 12 12 12 11
34 33 32 34 32 30 25 28 26 26 27 23 12 6 6 5 3 3 2 3 3 3 3 3 4 4 4 5 4 5 6 7 8 9 9 10 10 11 12 12 12 11 11
36 34 34 35 31 28 28 28 29 28 31 31 31 28 11 6 6 5 5 5 5 6 6 6 6 6 8 8 7 7 8 8 9 9 10 10 11 12 12 11 10 9 9
36 35 36 31 32 31 29 28 30 30 30 31 34 34 33 26 10 7 7 7 7 8 8 8 8 8 8 8 8 9 9 9 10 10 11 11 10 10 9 9 9 10 11
36 37 35 34 34 34 32 32 32 33 32 32 32 34 35 36 34 29 15 7 7 8 8 9 9 9 10 10 10 10 10 10 10 9 9 8 9 12 14 16 17 18 17
38 38 36 39 39 36 34 36 36 36 36 35 34 31 31 34 36 35 34 32 28 22 15 11 8 8 8 8 8 8 9 11 14 18 20 22 22 22 21 20 20 20 20
38 38 41 44 41 38 37 36 36 37 37 37 38 36 30 28 33 34 29 23 23 27 28 26 22 20 19 20 21 22 23 23 22 20 19 19 19 21 23 23 24 24 24
44 43 44 44 42 40 38 36 36 36 38 39 39 40 39 32 29 31 32 23 18 17 17 18 20 21 20 20 20 20 22 24 25 25 24 27 27 26 26 26 24 26 27
44 43 44 43 43 43 41 39 37 37 39 41 41 41 42 41 35 32 31 30 24 22 22 23 23 24 25 26 27 28 29 30 29 28 24 22 21 20 21 22 22 21 21
42 41 42 43 44 44 43 42 41 40 41 41 42 42 42 42 41 37 34 32 31 27 24 26 28 28 28 29 29 31 30 30 26 23 24 25 24 22 22 22 22 22 23
44 42 41 41 44 45 44 43 42 42 42 42 42 43 42 42 41 42 39 37 36 34 31 27 27 29 30 30 31 32 31 29 27 26 25 22 22 23 25 28 29 30 30
47 46 44 42 42 42 44 44 44 43 42 43 43 43 42 40 40 44 43 42 40 39 36 34 31 28 30 31 33 34 33 30 28 25 24 25 26 27 27 26 28 27 24
39 44 48 48 47 47 44 44 44 44 43 42 44 45 44 43 42 41 41 42 42 42 40 38 35 34 34 32 32 32 31 30 26 24 24 28 28 28 27 26 21 16 11
39 39 39 41 45 45 47 46 44 44 44 43 43 45 46 44 46 44 42 42 42 40 38 40 37 34 33 35 35 32 30 28 28 25 26 29 30 27 21 13 9 8 8
90 43 37 46 49 49 47 46 44 43 44 45 44 46 48 47 47 46 45 44 41 40 38 38 35 33 36 36 34 31 28 27 30 28 26 22 16 12 10 9 9 10 10
67 92 39 42 45 50 50 50 47 45 46 46 48 51 51 52 51 49 49 48 45 41 37 36 33 34 39 36 32 28 30 30 25 19 15 12 11 11 11 13 14 16 15
51 82 61 41 46 45 50 51 51 50 52 49 49 49 50 49 50 49 49 53 57 48 39 35 33 37 37 33 30 33 29 24 20 15 13 12 13 15 17 17 17 16 16
47 51 64 50 43 46 44 44 50 52 50 51 52 53 54 53 52 52 53 52 54 58 41 35 36 37 34 30 33 31 28 27 26 21 15 14 14 17 18 18 18 18 18
47 46 51 55 46 45 44 41 46 54 52 47 50 52 51 52 50 52 54 54 48 46 42 38 38 35 31 34 34 34 35 35 35 31 23 17 17 18 18 20 20 19 18
46 49 50 58 50 46 50 46 45 50 54 49 50 50 46 44 50 55 58 55 59 55 60 53 37 34 35 36 37 35 30 30 34 35 32 24 20 19 20 20 20 20 19
43 58 67 53 55 53 54 51 46 48 55 53 50 46 43 48 59 63 59 65 66 71 78 60 39 34 41 40 39 36 37 44 45 44 39 30 24 20 20 20 20 19 19
25 44 61 73 62 48 51 52 53 58 58 55 53 48 44 48 61 66 66 70 75 75 79 62 41 39 44 44 43 46 49 49 49 48 46 39 28 22 20 20 20 19 18
23 26 44 61 68 67 49 54 56 57 55 52 54 49 44 51 56 68 70 81 88 86 86 89 70 44 48 49 52 56 55 54 53 52 50 44 32 24 21 20 19 18 17
28 26 26 45 60 64 63 60 57 55 54 53 58 53 52 52 55 63 71 73 91 87 88 77 46 49 51 53 57 58 55 56 57 56 52 44 31 22 21 19 18 16 14
41 44 32 32 34 44 56 60 61 60 57 56 57 53 52 54 55 63 74 82 89 93 96 69 48 53 55 59 59 57 56 55 57 60 56 41 25 21 20 18 16 14 14
28 39 41 43 39 44 50 44 57 63 61 58 56 51 52 52 59 62 77 90 100 100 87 85 54 56 59 62 62 60 57 56 59 63 59 38 23 20 18 16 15 15 14
Wind_Speed
4 2 1 2 4 8 9 8 7 6 6 5 4 4 4 4 4 4 5 4 4 4 5 6 7 7 9 9 9 9 9 9 9 9 9 9 10 11 10 11 12 11 12
6 6 4 1 2 8 9 8 7 6 6 7 7 7 6 5 5 4 3 2 1 2 4 4 4 6 9 7 6 6 5 6 7 8 9 10 10 11 11 12 12 12 13
10 8 6 3 2 9 10 8 7 7 6 6 7 7 7 7 6 4 4 2 1 2 2 3 5 7 6 3 5 5 4 6 8 9 11 11 10 11 11 12 13 13 13
11 9 7 4 4 8 9 8 7 5 6 7 7 8 7 6 6 5 3 2 2 2 3 3 3 4 4 3 2 3 5 7 8 9 10 12 10 12 13 13 12 12 12
11 9 8 5 4 5 5 5 6 5 5 6 7 7 7 7 6 6 6 5 4 3 3 3 4 4 4 5 5 6 7 7 9 10 11 11 11 11 11 12 12 12 12
13 11 8 6 7 7 6 6 5 5 5 6 6 6 6 6 6 5 5 5 6 6 5 5 5 5 5 6 6 7 8 8 8 8 9 9 11 11 12 13 13 13 13
13 12 11 10 10 9 8 7 7 6 6 6 7 7 8 7 6 7 7 7 6 6 6 5 5 4 4 4 5 6 7 8 9 9 9 8 10 10 11 12 13 13 13
16 15 16 14 13 13 11 9 9 8 7 7 7 8 8 8 8 8 9 8 7 6 5 5 5 5 5 5 4 4 5 7 8 9 11 9 12 11 13 14 14 14 15
20 17 18 18 17 16 13 12 11 10 9 7 8 8 9 9 9 8 7 7 7 6 6 5 4 3 3 4 5 6 7 8 10 10 13 11 13 14 15 15 16 16 16
20 18 19 20 19 18 16 15 13 12 10 8 8 9 9 9 8 7 8 7 7 7 6 6 5 5 6 6 6 8 9 10 12 13 13 14 16 17 17 17 17 18 18
21 21 21 19 20 20 19 18 16 14 13 11 10 10 10 10 9 7 7 8 8 8 8 8 7 8 8 8 8 10 11 12 14 15 16 17 17 18 18 18 18 18 19
23 23 23 23 22 23 21 21 19 18 16 14 13 13 12 11 9 8 8 9 9 10 10 10 10 10 11 10 9 11 13 14 17 16 16 18 19 20 20 20 20 20 21
25 25 24 25 24 23 23 23 22 21 19 18 15 15 14 13 11 10 10 11 11 13 13 12 12 11 13 14 12 12 14 16 18 18 17 20 22 23 23 22 22 22 22
28 26 27 26 25 25 24 25 25 24 23 21 19 17 15 14 13 12 13 13 14 15 16 14 14 13 13 13 13 14 15 17 18 22 20 21 23 23 23 22 21 21 21
21 31 29 26 24 25 23 23 26 25 24 23 21 19 17 16 15 14 14 15 16 17 17 17 17 17 15 14 14 14 16 18 20 24 21 21 22 22 22 21 20 20 20
30 27 31 27 27 24 24 23 23 22 21 21 20 17 16 16 15 15 16 16 17 19 19 18 18 17 16 15 15 15 17 19 20 23 22 20 21 21 20 20 20 21 22
34 29 33 30 29 29 25 22 22 23 22 20 20 19 17 17 17 17 17 17 16 24 22 19 18 16 16 16 16 16 18 19 20 21 24 21 20 21 21 21 22 23 24
40 37 35 36 34 34 34 30 25 26 26 23 22 21 20 19 20 20 19 19 22 23 27 20 18 16 16 16 16 16 17 19 20 21 22 22 21 21 22 23 24 24 26
45 43 40 38 40 36 36 32 29 27 30 30 26 26 25 23 22 22 23 23 20 19 19 20 18 16 16 16 16 17 18 19 20 22 22 23 24 25 25 24 26 27 29
48 47 45 44 46 39 37 37 32 31 33 32 28 30 28 27 25 25 24 24 21 19 17 16 19 17 16 16 17 18 19 19 21 23 24 25 24 26 27 28 29 30 32
52 47 43 50 51 45 42 41 37 33 36 33 32 30 30 25 25 26 26 24 22 18 18 18 19 18 17 16 17 18 19 21 23 24 26 27 28 28 29 30 31 33 34
49 56 52 48 53 55 48 44 39 37 36 32 32 31 31 29 25 26 27 25 23 20 18 21 20 20 18 17 18 19 22 23 24 27 28 30 31 31 32 33 34 35 37
41 47 61 58 55 55 52 45 45 42 41 35 34 31 29 28 25 26 26 24 26 23 22 27 23 22 19 18 19 22 26 27 29 30 31 32 33 33 34 35 35 36 38
39 41 42 58 62 58 56 51 50 47 44 37 33 30 29 26 27 27 27 28 29 25 24 23 23 21 20 20 21 24 27 30 33 33 34 36 36 36 37 37 36 37 38
39 38 40 43 51 55 61 58 56 52 47 41 35 32 30 28 29 28 29 30 30 26 23 23 24 22 22 22 24 27 30 33 36 38 37 36 37 38 40 40 39 41 43
36 45 45 41 43 47 52 57 60 55 50 45 38 34 31 30 30 31 31 31 30 28 26 27 24 23 23 25 27 30 33 36 39 42 44 42 41 38 40 40 40 42 44
Wind_Direction
214 237 241 38 21 9 11 19 21 22 14 19 17 11 5 344 332 321 300 290 257 235 231 224 224 227 241 238 239 236 244 247 249 257 265 274 284 290 297 297 301 307 304
225 236 233 200 353 354 7 7 16 17 21 14 17 13 3 358 355 360 334 329 277 217 222 221 229 233 240 246 225 227 227 240 253 261 269 277 284 291 297 299 303 303 301
228 227 232 233 335 342 347 356 3 11 17 19 14 14 9 358 356 0 352 346 293 246 241 225 222 234 259 188 197 221 238 251 260 269 276 280 286 290 295 297 298 299 299
220 224 226 242 314 340 336 334 335 351 5 9 11 4 7 5 358 356 346 315 276 245 245 252 256 258 274 294 301 287 276 272 277 282 284 288 296 296 298 299 299 298 299
211 208 217 232 283 313 302 302 310 328 352 360 0 2 359 357 2 359 348 330 306 287 277 282 287 288 299 303 303 303 292 291 290 288 292 300 301 302 301 298 296 296 295
216 210 206 238 264 280 282 277 283 306 328 341 350 351 353 352 355 351 337 330 327 323 319 307 300 302 304 303 301 298 298 294 294 300 302 308 304 305 302 299 299 299 298
216 210 244 270 259 243 262 261 277 288 304 320 333 343 345 348 347 349 345 340 332 323 313 309 308 305 301 295 290 286 294 303 307 309 310 311 309 310 305 302 301 299 299
233 244 255 256 251 251 245 259 269 280 295 308 318 328 333 339 346 348 347 346 339 330 319 310 305 305 298 294 298 316 320 314 310 310 300 319 307 305 302 302 302 303 299
237 235 242 248 250 249 244 250 258 271 282 296 310 317 324 330 334 339 338 340 338 337 340 339 339 329 312 314 323 318 310 307 306 306 311 314 304 302 302 301 301 298 296
246 234 239 248 249 248 247 249 254 260 270 281 292 303 308 314 317 322 322 326 332 332 325 314 308 305 306 311 312 307 304 305 306 307 312 306 302 301 300 300 299 298 296
240 246 240 242 247 249 251 255 258 259 263 268 279 289 294 298 304 304 304 314 319 320 316 310 305 298 301 302 307 300 303 303 305 308 309 304 303 302 301 300 299 299 295
236 241 247 242 245 249 249 253 254 257 258 262 273 282 287 291 301 302 301 303 310 310 310 311 306 304 299 296 293 299 300 303 302 305 306 304 303 302 300 299 301 297 295
242 241 245 250 246 249 254 251 253 255 256 258 265 273 279 287 296 302 302 306 308 307 307 303 309 299 293 299 302 300 301 302 301 303 306 303 302 301 302 304 299 297 294
242 243 246 250 254 250 253 256 255 255 256 258 259 265 273 277 287 295 302 305 305 307 307 302 295 287 285 290 293 297 299 299 300 301 304 302 301 300 301 300 299 296 295
239 249 246 247 250 256 251 253 254 254 256 257 262 266 268 271 276 284 293 300 308 306 304 297 294 291 289 288 290 293 295 299 301 301 304 305 302 301 300 299 297 296 295
220 237 251 247 248 246 251 250 251 251 253 255 259 263 265 268 272 279 290 297 306 302 300 296 291 288 287 287 288 293 298 301 303 305 307 306 302 299 299 298 296 296 296
228 227 245 249 244 246 244 250 254 257 252 259 260 259 267 274 279 281 287 291 308 311 296 291 285 280 280 284 291 297 303 306 307 308 306 306 302 300 299 298 297 297 296
230 232 237 245 247 248 251 246 249 257 259 254 258 262 267 276 281 287 288 286 283 290 291 283 277 274 276 282 290 301 306 308 311 310 307 306 301 298 298 298 296 296 296
235 233 234 241 244 249 252 252 248 251 258 260 258 264 266 271 277 282 287 287 280 271 270 279 271 267 273 282 294 301 307 312 314 311 310 306 305 302 299 295 296 296 295
234 235 233 238 245 245 248 252 249 247 254 259 263 265 267 269 274 278 279 284 277 279 274 269 267 267 271 282 293 302 310 315 317 316 313 309 305 302 301 299 298 298 296
233 230 237 238 241 240 243 247 253 250 253 256 264 272 271 269 271 273 277 279 275 277 276 275 267 266 274 284 294 303 311 317 320 317 314 309 305 302 299 298 299 298 298
235 229 228 230 242 244 238 245 249 248 251 257 265 274 271 268 270 271 275 273 270 269 279 284 266 263 272 284 296 304 309 312 316 317 315 311 308 306 304 302 303 302 301
242 237 232 230 231 242 246 240 243 245 249 254 260 275 270 267 264 268 269 265 266 270 273 266 261 263 272 286 297 305 311 314 317 318 316 312 308 305 303 304 304 303 300
244 243 237 235 237 238 243 242 245 248 254 257 263 270 262 257 258 265 262 262 267 272 277 266 260 266 276 286 296 304 309 312 314 315 315 312 310 308 307 305 304 301 298
234 242 244 237 239 238 241 243 243 243 249 254 260 265 255 254 257 261 258 260 261 265 267 264 262 267 279 290 298 304 308 310 311 312 312 310 308 308 307 307 305 302 301
248 238 237 239 238 238 238 240 242 243 246 252 257 261 255 255 255 256 253 257 260 257 266 264 260 269 282 292 300 305 308 310 311 312 312 311 309 308 306 305 304 302 299